Lid_Strength_Index
1 1 2 2 2 3 3 4 3 3 3 2 1 1 1 1 1 1 1 1 2 2 1 2 2 1 2 2 2 2 3 3 7 7 5 5 6 6 7 7 7 7 7
2 3 4 4 4 4 4 4 4 4 3 3 2 2 2 1 1 1 2 2 2 2 2 2 2 2 2 2 3 3 5 5 5 8 7 6 6 6 7 8 7 7 7
3 4 5 5 5 6 5 5 4 4 4 3 3 3 3 2 1 1 1 2 2 2 2 2 2 2 3 3 4 5 6 6 6 7 8 7 7 7 8 7 7 7 6
5 6 7 8 7 7 6 6 6 5 5 4 5 4 3 2 2 1 1 2 2 2 2 2 2 3 3 3 5 5 7 7 7 8 8 9 8 8 8 8 9 8 6
8 8 9 9 8 8 7 6 5 5 4 5 5 5 4 3 2 1 1 2 4 6 6 7 7 6 6 6 7 7 9 9 10 10 10 10 9 9 9 8 9 6 6
9 10 9 9 8 8 8 7 7 7 6 3 4 3 2 1 4 5 3 6 7 8 8 9 8 8 8 8 8 8 8 9 10 9 10 10 9 9 9 9 7 8 9
10 10 10 9 10 10 9 9 9 9 7 6 6 6 6 6 7 7 6 7 8 9 9 10 10 10 10 10 9 9 9 9 8 8 10 10 10 10 8 7 7 7 7
11 11 11 11 10 10 10 10 10 9 9 8 8 8 8 8 9 9 9 9 10 11 10 11 11 11 10 11 11 10 10 9 10 8 9 9 9 7 6 6 6 6 5
12 12 11 11 11 10 10 11 10 10 10 10 10 10 10 10 10 10 10 10 11 11 10 10 10 10 11 10 10 10 11 11 11 10 9 8 8 8 8 7 7 8 8
13 12 11 10 10 11 10 12 11 11 11 11 11 11 10 11 11 11 10 11 12 12 11 11 11 12 12 12 11 10 10 10 10 8 7 8 8 7 8 8 6 8 8
13 12 11 10 10 11 11 11 11 11 11 11 12 11 11 11 12 12 11 11 12 12 12 12 12 12 13 12 11 10 10 11 6 5 5 5 6 6 5 5 5 6 7
12 12 11 11 11 11 11 11 11 11 11 12 12 12 12 11 11 11 12 12 11 12 13 12 11 12 13 13 11 12 10 10 8 4 5 5 5 5 5 4 4 4 4
12 12 12 12 12 11 12 12 12 11 11 12 12 13 13 12 12 12 12 13 12 12 12 12 13 13 13 12 10 8 6 5 5 6 6 5 5 5 4 4 3 4 3
12 13 13 13 14 13 13 13 13 13 12 13 13 13 12 12 12 12 12 12 12 12 12 12 12 12 9 7 6 6 5 5 5 5 5 5 5 5 5 5 5 6 6
14 13 13 14 14 14 13 13 13 13 13 13 14 13 13 14 13 13 12 12 12 12 12 11 8 7 7 6 6 6 6 5 5 5 6 6 6 6 6 5 6 7 8
13 13 13 13 13 13 14 14 13 13 13 14 14 14 13 14 14 14 14 14 14 13 9 9 9 9 9 8 7 7 6 6 6 6 6 6 7 7 6 6 6 7 8
12 12 13 13 13 13 14 15 15 13 13 14 14 14 14 15 14 14 13 11 11 9 9 9 9 9 9 9 8 7 7 7 6 6 6 7 7 7 6 6 6 8 10
11 12 12 12 13 13 13 14 13 14 15 14 14 14 14 15 14 12 12 10 9 9 9 9 10 9 9 9 8 7 7 7 7 7 7 7 7 7 7 7 8 10 11
11 11 11 11 12 13 13 13 13 13 13 12 12 12 12 12 10 10 10 9 10 10 10 9 9 10 10 9 8 7 7 8 8 7 7 7 7 6 7 8 9 13 12
10 12 11 10 11 11 12 12 11 12 12 10 10 9 8 9 9 9 9 9 9 9 9 10 10 10 10 9 8 8 7 8 7 7 7 7 6 7 8 9 11 12 11
9 9 14 10 11 12 12 11 11 11 11 10 10 11 13 9 9 9 9 10 9 9 10 10 11 11 10 9 9 9 8 8 8 7 7 7 7 9 9 10 12 12 11
10 10 11 12 12 12 11 10 10 10 9 9 9 10 12 8 9 9 9 10 10 10 10 11 11 10 9 9 10 10 10 9 8 7 8 8 8 8 9 11 12 12 11
10 11 11 12 11 13 11 10 9 9 9 9 9 9 9 9 9 10 10 10 10 10 10 11 10 10 9 9 9 9 10 10 9 7 8 7 8 9 10 12 12 13 12
9 10 10 10 10 10 9 9 9 10 9 9 9 9 9 9 9 9 9 9 10 10 10 10 10 10 10 9 9 9 10 12 8 8 6 7 9 10 10 12 12 12 12
9 10 11 11 10 9 9 9 9 10 9 9 9 9 9 9 9 9 9 10 10 11 11 11 10 9 9 10 10 11 13 13 10 10 7 8 10 10 11 11 12 12 12
9 9 10 10 10 9 9 10 10 10 9 9 8 8 8 8 9 9 9 10 10 11 11 11 10 10 10 10 11 13 13 13 11 11 8 9 10 11 11 12 12 12 13